sat.trackr.live / text

‹ back to catalog

ONEWEB-0645

NORAD 55809 · 2023-029P

PAYLOAD ACTIVE UNKNOWN

§ Identity

Operator
Country
UK
Launch date
2023-03-09
Launch site
AFETR
Launch vehicle
Mass (kg)
RCS (m²)

Purposes: comms

External: N2YO · Heavens-Above · Gunter

§ Orbital elements

Epoch: 2026-05-24T21:58:35.394816Z

Period
109.11 min
Inclination
87.9149°
Eccentricity
0.0001619
Mean motion
13.19726782 rev/d
Perigee alt
1,184.5 km
Apogee alt
1,187.0 km
Semi-major
7,563.9 km
B*
-5.3267e-5
RAAN
309.6153°
Arg perigee
78.4042°
Mean anomaly
281.7272°
Rev number
15,583

§ Raw data

ONEWEB-06451 55809U 23029P   26144.91568744 -.00000008  00000+0 -53267-4 0  99902 55809  87.9149 309.6153 0001619  78.4042 281.7272 13.19726782155833

JSON: /api/v1/satellites/55809 · /tle

For live sub-satellite position, see the globe view (requires WebGL).

§ Visibility from observer

Set your observer location to see the next 7 days of passes ≥ 10°. The values pass through the URL so the page stays shareable.

No JS? Fill the form by hand. The geolocation button needs JavaScript.